Theta_e
331 328 338 346 346 346 336 329 331 329 330 330 331 332 331 326 325 335 338 339 340 339 338 338 336 335 335 335 336 337 335 337 339 341 342 342 342 343 343 344 344 344 344 343 342 341 340 340 340 340 338 334 330 328 328 331 333 332 332 333 334 335 335 335 335 336 338 338 339 340 338 338 337 333 330 327 325 324 324 325 322 316 312 310 310
331 331 340 345 347 345 335 330 330 329 332 330 331 332 332 328 323 333 339 340 342 341 339 338 337 337 337 336 336 335 333 333 337 341 343 343 343 343 344 344 344 344 343 342 340 339 337 335 335 336 336 334 331 329 329 332 334 333 332 333 333 334 334 334 333 332 333 333 334 336 335 334 333 331 328 326 326 325 323 322 319 314 310 309 309
332 337 342 344 346 343 334 332 330 329 332 330 331 331 332 327 323 333 342 341 342 341 338 337 337 337 336 336 335 334 332 330 334 341 343 343 344 343 343 343 343 342 340 338 336 335 333 333 332 330 328 327 326 325 326 330 334 335 334 334 334 335 336 335 334 334 333 332 331 329 327 325 325 327 327 325 326 326 323 320 316 315 312 311 311
337 342 342 345 345 341 334 331 329 329 332 331 331 332 332 326 326 337 342 342 341 339 338 337 337 337 336 335 335 334 333 331 332 340 343 342 343 343 343 342 340 338 335 334 334 335 334 333 332 331 329 326 324 321 321 324 332 336 336 336 335 336 336 337 337 337 336 336 334 331 328 325 323 327 331 328 329 327 323 320 316 318 315 314 316
340 342 343 346 345 342 334 330 329 330 332 332 331 332 331 326 333 341 342 342 340 339 339 338 338 337 336 335 335 334 334 332 331 339 343 342 343 342 341 338 337 335 333 333 335 336 333 331 329 329 331 331 327 323 321 319 325 332 335 336 336 337 337 337 337 337 337 336 336 334 333 332 326 323 330 331 331 330 328 325 319 318 316 316 318
341 341 343 345 345 342 334 331 329 330 333 332 332 333 330 330 338 342 342 342 341 341 341 339 338 337 336 336 336 336 335 334 331 335 341 342 342 342 340 337 336 333 332 332 333 332 329 328 326 326 327 329 327 324 323 320 320 324 332 335 336 336 336 336 335 335 335 335 334 334 334 336 332 322 324 329 331 332 331 330 325 322 322 322 323
339 341 344 343 344 341 335 332 329 330 333 333 333 332 331 336 342 342 342 342 341 342 341 340 339 338 337 337 337 338 337 335 332 332 338 341 341 342 341 340 337 333 330 330 328 327 326 327 329 330 327 326 326 324 324 323 321 320 326 332 333 334 334 334 333 333 333 333 333 334 334 335 335 325 323 326 327 332 333 332 327 324 325 323 324
340 342 343 343 343 341 337 332 330 331 333 334 333 332 333 339 342 341 342 341 341 342 341 340 340 339 338 339 338 338 337 335 331 329 333 339 342 341 342 341 339 336 331 328 327 326 325 325 328 330 328 327 326 325 325 324 323 321 323 327 330 332 332 332 332 333 332 333 333 334 334 334 335 326 323 326 323 329 332 330 328 325 327 326 324
341 342 343 343 343 342 338 333 331 332 334 335 333 333 337 341 342 341 342 341 341 341 341 340 340 340 339 339 338 337 337 335 330 327 328 335 340 341 341 341 341 339 333 328 327 326 324 325 326 327 328 328 327 326 325 324 324 323 324 326 329 331 331 332 333 333 333 333 333 334 334 334 334 326 324 328 324 326 328 327 328 326 327 327 323
340 341 342 342 342 343 339 334 332 333 334 335 334 335 339 342 342 342 341 341 340 340 341 340 339 338 338 338 337 336 336 335 332 328 325 328 334 338 339 340 340 339 336 331 328 326 324 326 327 326 328 328 326 325 324 324 325 325 326 327 330 331 332 333 333 333 332 331 333 334 334 334 333 326 325 330 327 325 325 324 324 324 326 327 324
340 340 341 342 343 343 339 335 334 334 336 335 335 336 341 342 341 342 341 341 340 340 340 338 337 337 337 336 335 335 336 336 333 330 328 325 328 334 337 338 338 339 339 335 330 326 324 326 327 327 328 328 327 325 325 325 326 327 328 330 331 331 332 333 333 332 331 330 332 333 333 333 332 326 325 331 331 327 325 324 323 324 327 328 327
340 339 341 342 342 342 339 336 336 336 337 336 336 338 342 342 341 342 341 341 339 339 338 335 334 334 335 334 334 335 336 336 334 333 331 329 327 329 333 337 338 340 339 336 332 326 324 326 328 328 329 329 327 325 325 325 326 328 329 330 331 330 331 333 333 332 332 331 331 333 333 333 332 327 326 331 332 329 326 326 327 325 325 328 328
339 340 341 343 342 342 339 338 339 339 339 337 337 340 342 342 342 342 341 340 337 336 335 331 327 326 328 330 332 333 333 333 334 334 333 331 329 326 328 334 339 340 338 336 332 327 324 326 328 329 329 329 329 327 326 326 326 328 328 329 329 328 330 332 333 332 331 331 332 333 334 333 333 328 326 332 332 331 330 329 328 325 325 325 326
337 340 341 342 342 341 339 339 340 340 340 338 338 341 342 342 342 341 340 338 336 333 330 324 319 318 319 321 323 322 323 326 329 333 334 333 330 328 325 329 334 335 334 333 331 327 324 325 326 328 329 329 328 327 326 326 327 327 328 328 328 327 328 329 331 331 328 329 332 332 333 333 334 330 328 331 331 332 332 331 330 326 325 324 325
337 339 340 341 342 341 339 340 340 340 340 338 339 341 342 342 341 340 338 336 334 330 323 318 316 317 316 315 315 314 315 316 319 324 327 328 328 328 326 326 327 327 327 327 328 327 325 324 324 325 327 327 327 327 326 326 326 327 327 327 327 327 327 328 328 329 327 326 329 332 333 333 334 333 330 330 331 332 330 330 330 326 323 324 326
338 339 340 341 341 340 339 339 340 340 339 339 341 341 342 341 340 338 337 335 331 326 319 317 317 316 315 315 315 314 313 311 312 314 316 318 320 322 322 323 322 322 323 324 326 327 325 324 324 323 324 324 325 325 325 325 325 325 325 325 325 325 325 326 326 327 328 327 328 329 332 333 334 333 332 331 331 331 329 328 327 325 323 324 325
339 339 340 341 341 340 339 340 340 340 339 340 341 341 342 340 339 337 335 334 328 322 318 317 318 318 319 320 321 320 317 313 310 309 310 311 313 315 317 318 318 318 320 323 324 326 325 324 324 324 324 324 325 324 323 323 323 323 323 323 323 323 323 324 326 328 329 330 330 330 331 332 334 334 333 332 331 331 329 327 326 325 324 325 325
338 338 340 341 340 339 340 340 340 340 339 340 341 341 341 340 339 336 335 331 324 319 319 320 322 324 325 326 327 325 322 319 315 313 311 309 309 310 311 312 314 315 317 319 320 322 324 325 326 325 324 323 322 321 321 321 322 322 321 321 321 320 321 324 327 329 329 330 330 331 331 332 333 334 334 332 332 332 332 328 327 327 326 326 326
338 339 340 340 339 339 341 340 340 340 339 340 342 342 341 339 338 336 334 328 322 320 322 325 327 328 329 329 328 325 324 324 322 320 318 315 313 312 312 311 311 311 312 313 313 315 317 321 323 322 323 323 323 324 326 328 327 326 324 322 320 321 324 328 330 330 331 331 331 332 332 333 332 333 334 333 332 332 334 332 328 329 329 327 327
338 339 339 339 339 340 340 339 340 339 339 341 342 342 340 339 338 336 333 326 323 323 326 328 330 332 332 330 328 328 330 330 330 329 328 326 323 323 323 323 321 318 317 317 315 315 316 320 325 328 331 332 333 334 335 336 335 334 332 330 327 328 331 333 333 333 332 332 332 332 332 333 333 333 333 333 333 333 335 335 330 330 331 329 328
338 339 339 338 338 340 339 339 339 338 340 341 342 342 341 340 338 336 332 327 325 326 329 331 332 334 333 330 330 332 333 334 335 335 336 335 334 334 334 335 334 334 332 331 330 328 328 331 335 337 338 338 338 338 338 338 338 338 337 336 335 334 335 335 335 335 334 334 333 333 333 333 334 334 333 333 333 333 335 337 334 333 334 331 329
338 339 338 337 338 340 339 339 339 340 341 342 342 341 341 341 338 336 332 329 329 329 332 334 334 335 332 330 331 333 335 336 337 337 338 337 338 338 338 339 338 339 338 338 338 337 337 337 338 339 339 339 339 339 339 339 338 338 338 338 337 337 336 336 336 336 336 336 335 335 334 334 334 334 334 334 334 334 334 336 336 336 336 333 330
338 338 338 338 339 339 339 339 339 341 342 341 342 341 341 340 338 337 332 330 330 331 335 337 337 336 332 332 332 334 336 337 338 339 339 339 339 339 339 339 339 340 339 339 340 339 339 339 339 339 339 339 339 339 338 338 338 338 338 338 337 337 337 337 337 337 337 337 337 336 336 335 335 335 335 335 335 334 334 335 335 336 336 334 331
338 337 338 339 339 339 339 339 340 342 342 341 341 341 340 340 338 337 333 331 331 332 336 338 338 338 336 335 334 334 335 336 338 339 339 340 339 339 340 340 340 340 340 340 340 340 340 339 339 339 339 339 338 338 337 337 337 337 337 337 337 337 337 337 337 337 337 337 337 337 337 337 337 336 336 336 335 335 335 335 334 335 337 336 333
337 337 338 338 338 338 339 339 340 342 342 341 341 341 340 340 338 337 334 332 332 332 335 338 339 339 338 337 336 335 335 335 336 337 339 340 340 340 340 341 341 340 340 340 340 340 340 339 339 339 339 339 338 338 337 337 337 337 337 337 337 337 337 337 337 337 336 337 337 337 336 337 337 337 336 336 335 335 337 337 336 337 338 338 335
336 336 336 336 335 337 339 339 341 341 341 341 340 341 341 341 339 337 335 334 333 333 335 338 339 339 339 338 337 337 336 336 336 337 338 339 340 340 341 341 341 341 340 340 340 340 339 339 339 338 338 338 338 338 337 337 337 337 337 337 336 336 336 335 335 335 336 336 335 335 335 336 336 336 337 337 336 335 337 338 338 338 339 339 337
335 335 336 335 334 337 339 339 340 340 340 341 340 341 341 340 339 337 336 335 334 334 336 338 339 339 339 338 338 337 336 336 336 338 339 339 340 341 341 341 341 341 341 340 340 339 338 338 338 338 338 338 338 337 337 337 337 337 336 336 336 335 335 334 334 334 334 334 334 334 334 335 335 336 337 336 336 336 335 337 337 336 336 337 338
335 336 337 335 334 338 338 338 340 339 340 341 340 340 340 339 338 337 336 335 335 335 337 338 339 339 338 338 337 335 334 335 337 339 339 340 341 341 341 341 341 340 340 340 339 338 337 338 338 338 337 337 337 336 336 335 335 335 335 335 334 333 332 332 332 332 332 332 332 333 333 333 334 334 335 336 336 336 335 336 337 336 336 337 338
335 336 337 336 335 338 338 338 340 339 340 340 340 340 339 340 339 337 336 335 335 335 337 338 339 339 337 337 336 334 335 337 339 340 340 341 341 341 341 340 340 340 340 339 338 337 337 337 337 337 336 335 334 333 333 332 332 333 333 332 332 331 330 330 330 330 330 331 331 331 332 332 332 333 333 334 335 336 336 336 337 337 337 338 338
335 336 337 336 335 337 337 338 339 339 340 340 341 341 340 340 339 337 336 335 334 334 336 338 339 339 337 338 336 335 338 340 340 340 341 341 341 340 340 339 339 340 339 338 337 336 337 337 336 336 335 333 332 331 330 331 331 331 331 330 330 330 330 330 330 330 330 331 331 331 332 332 332 333 333 334 335 335 336 335 336 336 336 336 336
334 335 336 335 335 337 337 337 338 338 340 341 341 341 340 339 338 337 336 334 333 335 337 339 340 339 338 338 336 336 340 342 341 341 341 341 340 339 339 339 339 339 338 338 337 336 336 336 335 335 333 332 331 330 330 330 329 330 330 330 330 330 330 330 330 330 329 329 330 331 331 332 332 333 333 333 334 334 334 334 334 335 335 334 334
334 335 335 335 334 336 337 336 338 338 340 341 341 341 340 339 338 338 336 334 334 336 338 339 339 339 339 337 335 338 341 342 341 342 341 340 339 339 339 339 338 337 337 337 337 336 336 335 334 334 332 331 330 329 328 329 329 329 330 330 330 330 330 329 329 328 328 328 328 328 329 329 330 330 331 331 332 333 333 333 333 334 334 334 334
333 334 335 335 334 335 336 336 337 338 340 341 340 340 339 339 339 337 336 335 335 338 339 340 339 339 339 336 336 340 341 341 341 341 341 340 338 339 339 338 337 337 337 336 336 336 335 334 333 332 331 330 328 328 328 328 329 330 330 330 330 329 329 328 328 327 327 327 326 327 327 327 327 328 328 329 330 330 331 331 331 332 332 333 333
333 334 335 335 335 335 336 337 337 338 340 341 340 340 340 339 338 336 335 335 336 338 339 339 339 339 338 335 337 340 340 340 341 340 339 339 338 338 338 336 336 336 336 335 334 334 333 332 331 330 329 328 328 328 328 329 329 330 330 329 329 328 328 327 327 326 326 326 326 326 326 326 327 327 327 327 328 328 329 329 330 330 331 332 332
332 333 334 335 336 336 337 338 338 339 340 341 340 340 339 338 337 336 335 335 336 338 339 339 339 339 337 335 338 339 339 341 341 339 338 339 339 338 337 336 335 335 335 334 333 333 331 330 329 329 329 328 329 329 329 330 330 329 329 329 328 327 328 327 326 325 325 325 325 326 326 326 326 326 327 327 327 328 328 329 329 330 330 331 332
332 330 331 334 336 337 337 339 339 339 339 340 340 338 337 337 337 336 334 335 337 338 338 339 339 339 336 336 339 340 340 341 341 340 339 339 339 338 337 336 335 334 334 333 332 331 330 330 329 329 329 329 329 330 330 330 329 329 329 329 328 327 328 327 327 325 324 325 326 326 327 327 326 325 326 326 326 327 328 329 329 329 330 330 330
331 329 328 331 335 336 337 338 338 338 337 337 337 336 335 335 336 336 336 337 338 338 338 339 339 337 336 338 340 340 341 341 340 340 339 339 338 337 336 335 334 333 333 332 331 330 329 329 329 329 329 329 330 330 329 329 329 328 329 329 328 327 327 327 326 324 323 325 326 327 327 326 325 325 324 324 324 325 327 328 328 328 329 329 329
333 330 328 330 333 335 335 336 336 335 334 334 334 332 331 333 335 336 337 338 338 338 338 338 338 337 338 340 340 340 340 340 340 339 338 337 336 335 334 333 333 331 331 330 330 329 329 328 328 329 329 330 329 329 329 328 328 328 329 329 328 327 326 326 325 323 323 324 325 327 327 325 324 323 323 323 323 324 324 325 325 326 327 327 327
335 334 333 334 334 335 335 334 334 332 333 334 333 329 330 334 336 337 338 338 338 338 338 337 338 338 340 340 340 339 340 339 338 337 336 335 335 334 333 332 331 330 330 329 329 329 328 328 328 329 329 329 328 328 328 328 327 328 329 329 328 327 326 325 325 323 322 324 325 326 325 323 321 319 319 320 320 322 322 323 323 324 326 326 327
338 336 337 337 336 335 335 335 335 334 335 335 334 332 333 335 336 337 338 338 338 338 338 338 339 340 340 339 339 339 339 338 336 335 335 334 334 333 331 330 330 329 329 328 328 328 328 328 328 329 329 328 328 327 327 327 326 327 328 328 328 328 327 325 324 323 321 323 324 325 324 321 318 316 315 315 317 319 320 321 321 322 323 325 326
338 338 338 338 338 337 336 336 336 336 335 335 335 334 335 336 336 337 338 338 338 338 338 338 338 339 338 338 338 338 337 336 335 334 334 333 332 331 330 329 329 329 328 328 328 328 328 328 328 328 328 327 327 327 326 327 325 325 327 327 327 327 327 324 323 323 321 321 323 324 323 319 316 314 313 312 313 315 317 318 319 319 321 322 324
338 338 339 339 338 337 337 337 337 336 335 336 336 335 335 336 337 337 338 338 338 338 338 338 338 337 337 337 336 336 335 334 333 333 332 331 330 330 329 329 329 328 328 328 328 328 328 328 328 327 327 326 325 325 325 325 324 324 324 326 326 326 325 322 322 322 320 320 322 323 321 317 315 315 314 312 310 311 314 316 317 317 319 320 321
338 338 338 339 339 338 338 338 337 336 336 336 336 335 336 337 337 337 337 338 337 337 338 337 337 336 336 335 335 335 334 333 332 331 331 330 329 329 328 328 329 328 328 328 327 327 327 328 327 326 326 325 324 323 324 324 323 322 324 327 328 329 329 323 320 321 320 319 320 321 320 318 316 315 315 313 310 308 310 313 315 316 318 318 319
337 338 338 338 338 339 338 338 337 336 336 336 336 336 337 337 337 337 337 337 337 337 337 336 336 335 334 334 333 333 332 332 331 330 330 329 329 328 328 328 328 328 327 327 327 327 327 327 326 326 325 324 323 322 322 323 322 323 325 328 327 326 329 325 320 320 320 319 319 319 321 319 316 316 315 313 310 307 307 311 314 315 316 316 317
337 337 338 338 338 338 338 338 337 337 337 336 336 336 337 337 337 337 336 336 336 336 336 334 334 334 333 332 332 331 331 331 330 330 329 329 328 328 328 328 327 327 327 326 326 326 326 326 325 324 324 323 322 321 321 321 322 322 323 326 326 325 325 321 321 322 319 319 319 318 320 319 317 316 315 313 310 307 306 308 312 313 314 314 315
337 337 337 338 338 338 338 338 337 337 337 336 336 337 337 337 337 336 336 335 334 334 335 334 332 332 331 331 330 330 330 330 329 329 329 328 328 328 328 327 327 327 327 326 326 325 325 325 324 324 323 322 321 320 320 320 320 321 320 321 323 323 321 319 321 322 319 319 319 317 318 319 318 316 314 311 309 306 305 306 309 311 311 312 312
337 337 338 337 337 338 338 337 337 337 337 337 336 336 336 336 336 336 337 336 334 333 333 333 332 331 330 330 329 329 329 329 329 329 328 328 328 327 327 327 327 326 326 325 325 324 323 323 322 322 322 321 320 319 319 319 319 319 319 319 319 320 319 319 320 320 319 319 318 318 317 317 318 316 312 309 306 305 304 304 307 308 309 310 310
337 337 337 337 337 337 338 337 338 338 337 337 337 337 337 336 337 337 337 337 336 333 332 331 331 330 330 329 329 329 329 329 328 328 328 328 327 327 326 326 326 325 325 324 323 322 322 321 321 321 320 320 319 318 318 318 318 317 318 318 318 319 318 317 318 319 320 318 317 318 317 316 317 316 313 307 304 303 302 303 305 306 307 308 309
337 337 337 337 337 337 338 338 337 338 338 337 337 337 337 336 337 337 336 336 335 332 331 331 330 330 329 329 329 329 328 328 328 327 327 327 326 326 326 325 325 324 324 323 322 321 321 320 319 319 319 319 318 318 317 317 316 316 316 316 317 317 316 316 316 317 318 318 317 317 317 317 316 315 313 306 302 302 302 302 303 304 305 306 307
337 337 337 337 337 337 338 338 338 338 338 338 338 337 337 337 337 337 337 335 332 330 330 330 329 329 329 329 328 328 328 327 327 326 326 325 325 325 325 325 324 324 323 322 321 320 319 318 318 318 318 318 317 317 317 316 316 315 315 315 315 314 314 314 313 313 316 317 317 316 316 316 316 315 312 305 302 302 301 301 302 302 304 304 305
337 337 337 337 337 337 337 338 338 338 338 338 339 338 338 338 337 337 337 334 331 330 330 329 328 329 329 328 328 328 327 327 326 325 325 325 325 325 325 324 323 322 321 321 320 319 318 317 317 317 317 317 316 316 315 315 315 314 314 314 313 311 311 311 310 311 314 315 315 315 314 315 315 315 311 304 301 302 301 301 301 301 302 303 304
Wind_Speed
27 31 30 29 27 26 28 27 25 24 22 20 19 16 15 15 16 17 17 17 18 19 19 19 19 18 17 17 16 15 15 15 15 16 15 14 13 12 12 12 12 12 12 12 12 11 11 11 11 12 11 11 11 12 13 12 12 13 13 13 13 13 12 12 12 12 11 11 11 11 9 7 5 5 5 4 4 3 2 2 2 2 3 4 4
34 33 31 31 28 28 29 27 26 25 23 21 19 16 15 14 16 17 17 18 17 18 19 19 19 18 17 16 16 15 15 14 15 15 15 14 13 13 13 12 12 12 12 12 11 11 11 11 11 11 11 9 9 11 13 12 12 12 12 12 12 12 12 12 11 10 10 9 9 8 5 4 3 3 4 4 3 3 2 1 1 2 3 4 5
35 33 32 31 29 30 30 27 26 25 23 21 19 17 15 14 16 17 17 17 18 18 19 19 18 17 16 16 15 14 14 14 15 15 14 14 13 13 13 12 12 12 12 12 12 12 11 11 10 10 10 9 8 9 11 11 11 11 11 11 11 11 11 11 10 9 8 8 7 5 4 3 3 3 4 4 4 3 2 1 1 3 4 4 5
32 33 32 30 28 30 31 28 27 26 24 21 20 17 15 15 16 18 17 17 18 19 19 19 17 16 16 15 14 13 12 13 14 15 13 13 13 13 12 11 11 12 12 12 11 10 9 8 8 8 8 8 7 7 8 9 10 10 9 10 9 9 8 8 7 7 6 6 6 5 5 5 4 3 4 4 4 4 3 2 2 3 3 4 4
31 32 31 29 27 29 31 29 27 26 24 22 20 18 16 16 17 17 17 17 18 18 18 18 16 16 15 14 13 12 12 12 13 14 13 12 13 12 11 10 11 11 11 10 9 8 7 6 6 6 6 6 6 6 6 6 7 8 8 8 8 7 6 6 5 5 4 4 4 5 5 6 5 3 3 4 4 4 4 3 3 3 2 2 3
31 32 30 29 27 28 30 29 27 26 24 23 21 18 17 17 18 17 17 17 17 17 17 17 16 15 14 14 13 11 10 11 12 14 13 12 12 11 10 9 10 10 9 9 8 7 7 6 6 5 5 5 4 4 4 4 5 6 7 7 6 5 4 4 4 4 4 4 4 4 5 6 5 4 3 3 3 3 2 1 3 3 2 2 1
32 31 30 30 28 28 29 28 27 27 24 23 21 18 18 18 18 17 17 17 17 16 16 16 15 15 14 13 12 10 9 10 11 12 13 11 10 10 9 8 8 8 8 8 7 7 7 6 7 6 5 4 3 2 3 3 4 5 5 5 4 3 3 3 4 5 6 6 5 5 4 5 5 4 4 3 2 1 0 1 4 3 2 1 1
31 30 30 30 29 27 27 28 26 26 24 23 21 19 18 18 18 17 17 16 16 16 15 15 14 14 13 12 11 10 9 9 9 11 13 11 9 9 9 7 6 6 6 6 6 6 6 6 6 6 5 4 2 2 2 3 5 5 5 4 3 2 3 4 6 7 7 7 6 5 4 4 4 4 3 3 2 0 1 2 3 3 1 1 1
28 29 30 30 28 26 26 27 26 26 24 22 21 19 19 18 17 17 16 16 16 15 14 14 13 13 11 11 10 10 9 9 9 10 12 11 9 8 8 6 5 4 4 5 5 5 6 6 5 5 5 4 3 3 4 5 6 6 5 4 3 3 4 5 7 8 7 6 5 4 4 3 3 3 3 3 3 1 3 4 3 3 2 1 1
27 27 28 29 27 25 26 25 25 25 24 22 21 20 19 18 17 16 16 15 15 14 13 13 12 11 10 10 10 10 8 8 8 9 9 10 9 8 7 5 4 3 2 3 4 4 5 6 5 5 5 6 6 6 6 6 6 6 5 4 3 4 5 7 9 8 6 4 4 3 2 2 2 2 2 2 2 3 4 5 4 5 3 2 2
25 26 27 28 26 24 25 25 24 24 23 22 20 20 20 18 17 16 15 14 14 13 12 11 10 9 9 9 10 9 8 8 7 8 8 8 8 7 6 6 4 3 2 2 2 3 4 5 5 5 6 7 7 7 7 6 5 5 4 3 3 5 6 9 9 8 6 3 2 2 1 2 2 2 2 1 2 4 5 5 4 3 3 3 3
23 25 26 26 25 23 25 24 23 23 22 21 20 20 20 18 17 16 15 14 14 12 11 9 9 9 9 9 9 9 8 7 6 6 6 7 7 7 6 6 4 2 1 1 2 2 3 5 5 6 7 8 8 7 6 5 4 4 4 3 4 5 7 8 10 10 8 5 2 1 1 2 3 3 3 2 3 5 5 5 4 4 4 4 4
23 24 25 25 24 24 24 23 21 21 20 21 20 21 20 18 17 16 15 13 12 11 10 8 7 7 8 8 8 7 7 6 6 6 5 5 6 6 6 6 4 3 2 2 1 2 3 4 5 6 6 7 7 6 5 4 4 3 4 4 5 6 6 7 9 10 11 8 4 2 2 3 4 4 4 3 4 5 5 5 6 6 5 5 5
25 25 25 24 23 23 24 23 21 20 20 20 21 21 20 18 17 16 15 13 11 10 9 7 7 7 7 7 7 7 6 6 6 6 5 5 5 5 5 6 5 3 2 1 1 0 1 3 4 5 5 6 6 6 5 4 3 3 4 5 6 7 7 7 7 9 10 9 6 4 4 5 5 5 5 5 5 5 6 6 7 7 7 6 6
27 27 25 24 23 23 23 22 22 21 21 21 21 21 20 19 17 16 15 13 11 9 8 8 7 8 8 9 9 9 8 7 6 6 5 6 6 5 4 5 5 3 1 1 2 1 0 2 3 4 5 6 6 5 4 3 3 3 4 6 6 7 7 7 7 8 9 9 7 5 5 6 6 7 7 7 6 6 7 7 7 8 9 7 7
28 27 25 25 24 23 22 22 21 21 21 21 21 21 20 19 17 16 15 12 11 9 9 9 9 10 11 12 12 11 10 9 8 7 5 5 5 5 4 4 3 2 1 1 1 1 1 1 2 3 4 5 5 5 5 4 4 4 5 7 8 8 8 8 8 9 10 10 8 7 6 7 8 8 9 9 8 7 8 8 8 9 9 9 9
27 26 26 25 24 24 22 21 21 21 21 21 21 21 20 19 17 16 14 12 11 10 10 11 11 12 13 13 13 13 13 12 11 10 8 6 4 3 3 3 2 1 1 0 1 0 2 2 3 4 5 6 6 6 6 6 6 6 6 7 8 9 10 9 9 10 11 11 10 9 8 8 8 10 10 10 10 9 9 9 9 9 9 10 10
25 25 26 26 26 24 23 22 21 21 22 21 21 21 20 19 17 16 14 12 11 11 12 13 13 13 13 14 14 14 15 14 14 13 12 10 9 6 4 2 1 0 1 1 1 1 2 3 4 5 6 7 8 8 8 7 7 7 8 8 9 10 10 10 10 11 12 12 12 11 11 10 9 10 12 12 12 11 10 10 10 10 10 10 11
24 25 26 26 27 26 25 24 23 23 23 23 21 20 19 18 17 16 14 12 12 12 13 13 13 14 14 14 15 15 16 16 15 15 14 13 13 11 10 8 5 4 2 1 1 1 2 3 4 5 6 7 7 7 7 7 7 7 8 8 8 9 9 9 10 12 12 13 13 14 13 12 11 11 12 13 14 13 12 12 12 11 11 11 12
23 24 25 26 27 27 26 25 25 24 24 24 22 20 18 17 16 16 14 12 12 13 13 13 14 14 14 14 15 16 17 17 16 16 15 14 14 13 13 12 10 9 7 6 5 4 3 4 4 6 7 7 7 7 7 7 7 7 7 7 8 8 8 9 10 11 12 13 13 14 14 14 13 12 13 14 15 15 13 13 14 13 13 13 14
23 24 25 27 27 27 27 26 25 24 24 23 21 19 17 16 16 15 14 13 13 13 13 13 13 13 14 15 16 16 16 16 15 15 15 14 14 13 12 12 11 11 10 9 8 7 6 6 6 7 7 7 7 7 7 7 7 7 7 8 8 9 10 10 11 11 11 12 12 12 13 13 13 13 13 14 15 16 15 14 14 14 14 15 16
23 24 25 27 27 26 26 26 25 24 23 23 21 20 18 16 16 16 14 13 13 13 13 13 13 13 14 14 15 15 15 14 14 14 13 12 12 12 11 11 10 10 10 9 9 8 7 7 6 7 7 7 8 8 7 8 8 8 8 9 9 10 10 11 11 11 11 11 11 12 12 13 13 13 13 13 14 16 16 16 16 16 16 17 18
24 24 25 25 25 25 24 25 25 24 23 23 22 20 18 17 17 16 15 13 13 13 13 13 12 13 13 13 13 12 12 12 12 11 10 10 10 10 10 10 9 9 9 9 9 8 7 7 6 7 7 7 8 8 9 9 9 8 9 9 9 10 10 10 11 11 11 11 11 12 12 13 14 14 15 15 14 15 16 18 19 19 18 19 19
24 24 24 23 23 23 23 24 24 24 23 23 22 21 19 18 17 16 15 14 13 13 13 12 12 11 11 10 10 10 10 10 10 9 9 9 9 9 9 9 8 8 7 7 7 7 6 6 6 7 7 8 8 8 9 9 9 9 9 9 9 9 9 9 10 10 10 10 11 11 12 13 14 15 16 17 16 16 16 19 21 21 20 20 21
22 22 23 23 24 22 22 24 23 23 23 23 23 21 19 18 17 16 15 14 13 13 13 11 10 9 9 8 8 8 7 8 8 8 8 8 8 8 7 8 8 7 6 6 5 5 6 6 7 7 7 8 8 8 9 9 9 9 9 9 9 9 9 9 10 10 11 11 11 11 11 12 14 15 16 17 17 17 17 18 20 21 21 22 23
21 22 24 25 26 23 23 24 23 24 24 23 23 21 20 18 17 17 15 14 13 13 12 11 10 9 8 7 6 6 5 5 5 6 6 6 7 6 6 7 7 6 6 6 6 6 7 8 8 8 8 8 8 9 10 10 11 11 10 10 10 10 10 10 11 11 12 12 12 12 12 12 12 13 14 16 16 17 16 17 20 22 23 24 23
25 24 24 25 26 24 24 25 24 24 24 23 23 22 20 19 18 17 16 15 14 13 12 11 10 8 7 6 5 4 4 4 4 5 6 6 7 6 6 7 6 6 6 7 7 8 8 8 8 7 8 8 9 10 11 12 12 12 12 11 11 11 12 12 12 13 13 14 14 14 13 13 12 12 13 14 15 16 15 15 20 22 23 25 24
25 24 23 24 26 24 25 25 24 24 23 24 23 22 21 20 18 17 17 15 14 14 12 11 10 8 7 6 5 4 4 4 5 5 5 5 6 7 7 6 6 6 6 7 7 8 7 7 7 7 8 9 10 11 12 12 12 12 12 12 12 12 13 13 13 14 14 15 15 15 15 14 14 13 13 13 13 14 14 14 18 21 22 23 23
26 26 24 25 27 25 24 25 24 24 24 24 23 22 22 20 18 17 16 15 14 13 12 11 9 8 6 5 4 3 4 4 4 5 5 5 6 6 6 5 6 6 6 6 7 7 6 6 7 7 9 10 11 12 12 11 11 10 11 12 12 13 13 13 13 14 14 14 15 15 14 14 14 13 12 12 12 12 13 14 16 19 20 21 21
28 28 27 28 28 27 27 26 26 25 25 25 24 22 21 19 17 16 15 15 15 13 12 10 9 7 5 3 3 3 3 4 4 4 4 5 5 5 5 5 6 6 6 6 7 7 6 6 7 8 10 11 11 11 12 11 10 10 10 12 12 13 13 13 13 13 13 13 13 13 13 12 12 11 10 10 10 10 10 12 14 15 17 18 20
29 29 30 31 30 30 30 29 28 27 27 26 24 22 20 19 17 16 15 16 15 13 12 10 8 6 3 3 2 3 3 3 3 3 3 3 3 4 5 5 5 5 6 7 7 7 7 7 8 9 11 12 12 12 12 12 11 11 12 12 13 13 12 11 11 11 12 12 12 13 12 11 11 9 9 8 8 8 8 10 13 14 15 17 18
29 32 33 32 31 32 31 31 30 27 27 26 24 22 20 19 18 16 15 16 15 13 11 10 8 5 4 3 2 3 3 2 2 1 2 2 2 2 3 3 4 5 6 6 6 6 6 7 8 10 11 12 13 13 12 12 12 12 12 12 12 11 10 9 10 11 11 12 13 13 13 12 12 11 10 9 8 8 8 9 11 13 14 15 17
30 31 31 31 32 33 33 32 31 28 27 26 23 22 20 19 18 16 16 15 14 13 11 10 8 5 5 5 3 3 2 1 1 0 1 1 2 3 4 3 3 5 5 5 4 5 6 8 9 10 11 12 13 12 12 11 11 10 10 10 8 8 8 9 10 12 13 14 14 14 14 13 13 12 12 11 10 9 9 9 10 11 12 13 14
27 27 29 31 32 33 32 31 30 28 26 25 23 22 20 19 18 17 16 15 13 12 11 9 8 6 6 6 5 4 2 2 2 1 1 2 3 3 3 1 3 4 5 5 5 6 7 8 9 9 10 10 11 11 11 10 9 8 7 5 6 8 9 10 12 14 15 16 16 15 15 15 14 14 14 13 12 11 10 10 10 11 11 11 12
25 27 29 30 31 30 29 29 29 27 26 25 24 22 20 19 19 18 17 15 13 12 10 9 8 7 7 7 6 5 3 3 3 3 1 3 3 3 2 0 2 4 5 5 6 7 7 7 7 8 9 9 9 9 9 8 8 7 4 5 8 9 9 11 13 16 17 17 18 17 17 17 17 17 16 16 15 13 12 11 10 10 11 12 12
26 28 29 29 28 28 27 27 28 28 27 25 23 22 20 20 19 18 16 15 13 11 10 9 9 8 8 8 7 6 4 4 4 3 2 4 4 4 3 0 2 3 4 5 6 6 6 6 7 7 8 7 8 8 7 7 7 5 4 5 9 10 9 11 13 17 18 18 19 18 18 19 19 20 19 19 18 17 15 13 13 13 13 14 14
27 29 29 29 27 26 26 26 27 27 26 25 23 22 21 21 20 17 16 14 13 10 9 9 9 9 8 8 7 6 5 4 4 2 3 5 5 5 4 1 2 2 3 4 4 4 5 6 7 6 6 6 7 8 7 7 6 5 5 6 8 10 10 12 14 17 20 19 19 19 19 20 21 22 22 22 21 20 18 17 17 16 16 17 17
28 29 29 29 27 25 25 25 26 26 25 24 23 22 22 22 20 17 15 13 11 10 9 10 11 10 9 8 7 6 5 5 4 3 5 7 6 5 4 2 2 1 2 3 3 3 4 6 6 4 4 6 7 9 9 8 6 4 5 6 7 11 11 12 14 18 21 21 21 20 20 21 22 24 25 24 24 23 22 20 19 18 18 19 19
28 29 28 26 25 24 24 23 23 24 24 23 22 22 23 22 20 18 15 13 12 10 10 11 11 10 9 8 8 6 5 6 6 6 6 6 5 4 2 1 1 1 1 2 2 4 5 6 5 3 4 5 7 10 9 8 7 3 5 5 5 8 11 12 14 18 22 22 21 20 21 22 24 25 26 26 26 25 24 22 20 20 19 18 18
27 29 26 23 23 24 23 22 23 24 24 21 21 22 23 22 20 18 16 14 14 14 13 12 10 10 9 9 8 7 7 8 9 8 7 5 4 2 1 1 0 1 0 2 3 4 5 5 4 3 4 6 7 10 10 9 7 3 4 5 4 3 6 12 14 17 22 22 21 20 21 23 25 27 27 28 28 27 27 24 23 22 21 19 18
24 26 25 22 23 25 25 24 23 24 23 20 21 23 24 22 20 19 18 18 17 16 14 12 10 10 9 9 8 8 9 10 10 8 6 4 2 2 1 1 1 0 1 3 4 4 5 4 4 4 6 8 9 12 13 9 9 8 2 1 3 1 2 10 14 16 20 23 21 20 21 23 25 27 28 29 29 29 28 26 25 24 24 23 21
23 24 25 23 23 25 26 25 24 23 22 21 22 24 24 23 22 21 21 19 17 16 14 12 11 10 10 10 10 11 11 11 9 7 5 3 2 2 2 2 2 2 3 4 4 4 5 4 4 5 6 8 10 12 14 11 9 9 4 3 5 2 1 6 13 15 18 22 22 21 21 22 25 26 28 30 31 30 28 27 25 24 24 24 25
23 24 25 24 22 24 25 25 24 24 22 22 23 23 23 22 22 22 21 19 16 15 14 13 12 12 13 12 12 12 11 10 8 6 4 3 2 3 3 3 3 3 4 4 4 4 5 5 6 6 6 6 9 11 13 12 10 7 2 2 4 3 1 5 12 12 14 19 22 21 20 20 23 25 29 31 32 31 29 27 26 24 24 24 25
21 23 24 24 23 24 25 25 25 24 23 23 24 23 23 22 22 21 20 17 16 15 15 15 14 15 15 15 13 12 10 8 7 5 4 4 3 4 4 4 3 3 3 4 4 5 5 5 7 7 7 6 7 10 12 11 12 8 2 0 2 2 1 5 13 10 11 17 21 22 19 19 22 25 29 31 31 31 29 26 25 24 24 24 25
21 22 24 24 24 24 25 25 24 23 23 24 25 25 24 22 21 20 18 17 18 18 18 18 18 17 17 15 13 11 9 8 6 5 5 5 5 5 5 4 3 3 3 4 5 5 5 6 7 8 8 7 6 8 10 11 13 11 5 2 1 1 0 4 8 6 8 14 18 22 19 17 20 24 27 30 30 30 29 27 24 24 24 24 25
20 22 23 24 23 23 24 24 23 22 24 26 26 26 24 22 21 21 19 19 19 18 20 21 20 19 17 15 13 10 8 7 7 6 5 5 6 5 4 4 4 4 4 4 5 6 6 6 7 7 7 7 5 6 9 10 11 12 11 8 5 4 1 3 2 3 8 9 13 21 21 16 18 23 26 28 29 29 29 28 25 24 25 25 25
18 21 22 22 22 22 23 23 22 23 25 27 26 25 24 22 20 20 20 20 19 18 19 21 20 19 17 15 13 11 9 8 8 7 6 5 5 5 5 4 4 5 4 5 6 7 7 6 6 5 5 6 6 8 9 7 7 9 10 10 9 8 6 5 2 2 5 5 8 16 20 17 16 20 26 28 28 28 28 28 27 25 26 26 26
17 20 22 22 22 22 23 23 23 24 25 27 26 24 23 20 19 18 18 19 19 20 21 21 19 18 17 15 13 12 10 8 8 7 6 5 4 5 5 5 6 6 5 6 7 7 6 5 5 4 5 6 7 8 9 8 8 8 8 7 8 8 8 9 7 2 2 3 6 10 16 19 17 18 23 26 26 26 28 30 29 27 27 26 26
17 20 22 22 22 23 23 23 24 25 25 26 25 23 22 20 18 18 18 18 19 22 22 20 19 18 17 16 14 13 11 9 8 6 5 5 4 5 6 6 7 7 6 7 7 7 6 5 5 6 6 7 7 7 9 11 11 11 10 9 8 8 8 11 12 7 4 4 4 6 11 16 16 17 21 23 23 24 27 30 30 28 28 27 27
17 20 22 22 23 24 24 25 25 25 25 25 24 22 20 19 19 18 18 19 20 22 22 20 19 18 17 16 15 13 12 10 8 6 6 5 5 6 7 8 8 7 6 7 7 6 6 6 7 7 7 7 7 7 9 10 10 11 11 12 14 12 9 9 12 10 6 4 5 5 9 12 11 13 19 21 21 22 26 29 30 30 28 28 27
18 20 22 23 24 25 26 25 25 25 24 24 23 21 20 19 19 19 19 20 21 22 22 22 21 19 18 17 16 13 12 10 8 7 6 6 7 8 8 9 8 7 6 7 7 7 7 7 7 7 6 7 7 7 9 9 9 10 12 13 15 14 11 8 9 9 6 4 5 5 8 11 9 10 16 20 18 20 25 28 30 31 29 28 27
Wind_Direction
180 170 162 162 161 159 157 153 150 152 150 147 146 144 141 137 138 137 135 133 129 128 127 125 123 121 119 116 111 106 106 105 106 107 106 105 104 104 103 101 100 99 98 96 96 95 94 94 95 97 98 98 96 95 96 99 102 103 103 101 97 92 87 82 81 82 84 88 84 83 83 82 73 59 56 46 37 31 26 31 43 69 94 103 108
172 166 162 160 160 159 157 153 151 153 152 150 148 147 143 139 141 138 135 133 129 128 128 126 124 121 118 115 111 107 105 105 108 107 106 106 106 105 104 101 99 96 94 95 96 95 93 91 89 92 93 90 84 86 91 95 102 105 105 103 100 95 91 87 84 82 81 78 75 78 79 77 63 47 45 29 28 26 17 23 45 96 110 108 105
161 161 161 159 160 159 158 154 152 154 153 152 151 150 144 141 141 138 135 134 131 130 131 129 126 123 120 117 114 111 108 107 110 109 106 108 108 107 104 100 97 95 97 99 98 97 93 89 86 86 87 87 79 79 87 94 102 108 109 105 103 100 97 91 84 81 75 69 65 63 52 35 19 29 26 16 22 19 30 39 54 99 114 116 110
155 158 157 157 160 159 159 155 153 155 155 153 152 151 145 143 140 137 136 135 134 133 134 131 127 125 123 121 118 118 113 109 112 110 106 108 109 107 102 100 101 100 101 100 94 92 89 86 83 84 84 84 79 74 80 92 105 112 113 109 107 104 100 92 82 75 65 60 54 50 45 29 19 34 25 18 23 26 49 54 69 96 110 122 117
153 156 155 157 159 159 160 156 154 155 156 154 154 152 147 144 138 137 138 137 136 134 134 133 130 129 128 127 125 122 119 113 112 112 109 108 109 104 101 104 106 104 100 95 85 80 80 80 81 85 86 87 85 76 75 88 107 117 118 116 112 105 96 83 70 55 41 39 33 29 34 27 17 20 26 23 24 32 44 48 60 69 82 108 116
153 154 155 157 159 160 160 157 155 156 156 155 154 152 148 143 139 140 140 138 136 134 134 135 134 133 131 129 126 122 122 117 115 117 117 112 109 105 101 104 106 106 99 88 79 75 72 72 71 77 86 94 96 86 83 91 112 124 127 125 119 108 90 66 41 17 360 358 360 4 9 16 13 5 23 28 27 32 35 33 16 21 49 66 105
152 153 156 158 160 161 160 158 156 157 157 156 155 152 148 142 141 141 140 138 137 136 135 137 136 136 134 131 127 123 125 121 118 122 124 116 112 113 107 103 105 106 97 86 76 70 65 65 63 63 67 79 94 93 97 108 117 123 127 127 120 105 73 31 1 342 332 329 329 336 343 358 1 355 9 23 29 32 348 293 323 342 2 360 120
152 154 157 159 160 160 160 158 157 157 157 156 155 151 146 141 142 143 141 141 139 137 137 138 137 137 135 132 129 129 130 125 120 124 130 126 121 120 114 110 108 106 99 88 74 62 56 57 58 57 56 56 71 94 107 113 110 110 113 113 103 77 37 4 341 327 321 317 316 318 322 334 344 346 355 10 14 237 255 293 316 336 347 315 175
153 156 157 158 158 160 161 159 157 157 157 156 155 149 143 142 144 145 143 141 140 137 137 138 137 138 135 131 130 133 133 129 125 122 130 135 137 128 118 118 109 101 103 96 76 60 50 46 49 55 55 55 68 92 101 103 101 100 98 92 78 50 15 352 338 331 327 320 316 316 310 313 323 332 338 1 8 295 270 288 294 313 304 261 250
155 157 158 156 156 161 161 158 157 156 156 155 153 148 143 145 146 145 144 141 139 137 137 139 139 139 136 133 131 135 135 134 133 127 127 134 146 142 128 125 103 88 101 112 86 63 49 43 44 48 49 56 73 87 92 94 93 92 86 78 65 38 8 357 352 348 344 331 320 326 315 304 315 318 321 344 343 305 288 291 285 296 289 272 285
156 158 156 153 156 163 161 157 157 156 155 155 152 146 144 147 146 145 145 144 141 138 137 141 143 140 137 136 133 135 137 139 141 138 130 127 141 151 144 132 115 109 113 137 113 76 53 45 46 48 47 54 69 79 84 86 85 82 69 58 44 22 7 6 9 7 2 353 322 331 338 319 329 315 313 307 293 301 301 299 294 293 273 263 280
156 156 153 152 159 165 161 157 157 155 154 155 151 146 147 148 147 147 148 147 143 138 139 144 144 142 138 136 134 135 142 149 152 150 144 134 136 149 155 144 136 158 189 180 148 100 62 52 50 50 49 54 65 74 79 79 77 68 46 28 13 7 9 8 14 21 21 21 348 313 336 333 335 316 312 289 269 297 304 300 292 286 275 258 264
155 152 151 155 162 165 160 156 156 154 153 154 151 147 149 149 149 152 152 147 142 138 139 143 142 141 138 134 136 141 155 165 168 163 157 156 149 151 161 159 159 195 218 197 162 109 70 54 51 50 50 54 63 72 76 74 67 50 27 12 357 355 8 8 9 20 24 24 14 328 311 322 324 311 306 289 273 282 283 277 278 282 279 268 269
153 151 154 159 162 164 159 156 156 155 154 154 151 149 151 151 153 157 152 144 141 138 136 138 137 136 134 133 134 138 150 161 171 166 154 167 174 168 170 175 186 216 223 234 264 129 72 51 47 46 47 48 55 62 67 65 54 34 14 2 352 347 357 3 1 5 12 16 13 347 315 310 307 301 298 292 278 260 256 258 265 275 275 273 269
152 152 158 160 159 163 161 159 158 157 158 155 153 152 153 154 158 158 148 143 141 136 134 134 134 133 129 126 122 119 123 130 143 150 148 169 184 185 185 190 208 236 260 299 293 242 273 37 37 37 39 38 39 41 44 43 28 12 358 352 346 341 341 349 352 349 354 1 1 347 321 306 295 290 288 289 285 266 264 262 261 272 274 271 261
152 155 160 159 158 163 162 162 161 160 160 156 156 156 157 159 160 156 147 143 140 135 136 134 132 128 122 117 112 108 107 107 109 114 122 144 170 185 193 200 212 232 248 324 349 235 264 329 7 17 22 20 19 17 17 11 359 348 340 340 338 334 331 335 342 342 345 349 350 341 322 304 291 285 282 283 285 275 274 273 270 273 272 268 262
154 158 159 158 161 163 161 165 165 163 161 158 160 161 160 161 160 154 146 143 140 137 138 135 129 123 119 114 108 104 100 97 95 94 95 101 116 145 177 201 213 221 217 21 32 293 281 303 329 347 355 353 352 350 349 345 338 330 323 325 327 328 327 330 335 336 339 340 341 338 327 312 294 285 282 280 281 278 274 275 275 274 269 266 267
155 159 159 160 164 164 163 167 168 166 164 162 164 165 164 162 157 151 146 143 140 139 137 132 128 123 120 111 104 101 98 95 92 89 87 87 90 93 101 121 160 245 283 312 322 307 294 297 314 330 337 337 337 339 340 337 332 325 317 314 318 323 325 328 330 331 334 334 335 333 329 322 305 291 285 280 279 276 270 272 273 270 268 265 267
156 160 161 164 166 166 167 170 171 169 167 164 166 167 165 162 156 149 145 143 141 138 134 132 128 124 118 110 103 100 97 94 90 88 86 83 83 81 80 81 78 73 63 40 6 330 320 318 328 337 342 343 344 347 348 344 340 333 325 317 316 322 329 329 328 328 330 331 331 329 328 325 316 302 291 283 280 275 263 265 273 269 266 266 268
158 162 164 168 169 170 171 173 174 171 169 166 167 167 164 161 154 150 146 144 142 136 134 133 129 121 115 110 105 101 97 93 89 86 84 81 80 78 76 74 73 71 68 63 57 52 46 32 20 11 5 1 359 359 358 357 353 347 339 331 325 327 331 333 333 333 332 332 329 326 326 325 322 313 301 289 282 278 263 256 271 270 261 264 269
161 166 169 171 173 174 174 175 175 172 170 167 167 166 162 160 155 151 148 145 140 136 136 135 129 120 115 113 109 104 100 94 90 85 80 77 75 74 73 72 69 67 64 61 57 55 51 43 35 25 16 9 6 3 0 359 355 349 344 340 335 331 330 332 334 336 336 333 329 325 324 325 325 321 312 298 286 281 270 257 263 261 253 261 266
167 170 172 174 175 177 176 176 173 172 171 168 168 165 162 161 158 155 151 147 140 139 138 135 129 121 118 116 112 107 102 97 94 88 80 73 69 67 65 64 61 59 58 56 53 48 42 33 27 20 14 9 5 360 353 349 346 343 340 338 334 330 327 327 331 333 333 330 327 325 324 324 325 325 322 311 296 284 276 267 263 258 252 259 264
171 172 174 176 178 179 179 177 173 173 172 170 168 166 166 164 162 158 154 150 144 144 142 136 130 122 119 116 111 108 102 98 96 91 81 72 69 65 59 56 52 50 48 46 43 39 33 25 18 12 7 2 357 350 344 341 339 337 336 336 335 333 330 327 328 329 330 328 325 323 324 325 326 326 326 321 309 292 280 272 269 264 254 256 262
173 173 174 177 179 180 182 178 175 175 173 172 170 168 170 169 165 160 157 154 150 151 149 141 133 126 121 116 110 106 100 95 91 86 78 71 69 66 63 58 52 46 43 42 38 32 24 17 13 8 2 355 350 345 340 338 338 337 336 337 336 335 333 329 326 325 326 325 324 327 331 332 331 330 328 325 316 302 285 274 271 268 259 255 259
171 172 176 180 180 182 184 180 177 177 174 174 172 171 172 170 166 164 162 159 157 157 156 149 141 135 127 119 112 104 98 91 84 77 71 66 62 62 61 55 51 44 41 39 30 22 11 7 6 2 357 350 347 344 341 340 340 340 339 339 337 335 332 330 328 325 325 323 322 326 330 332 332 331 330 329 324 311 291 278 273 268 263 260 259
171 175 180 184 183 185 187 182 179 179 178 177 175 174 174 172 168 169 168 164 164 163 161 156 147 141 132 124 113 100 91 85 79 72 62 58 56 56 55 51 51 45 37 32 20 13 5 0 357 352 350 347 345 345 344 342 338 337 337 337 335 334 333 332 331 329 327 325 323 322 322 325 326 327 328 328 327 319 303 283 272 264 260 260 260
176 179 183 186 184 187 190 184 181 181 180 180 178 177 177 175 172 172 172 168 168 167 165 159 153 147 136 125 111 92 81 79 75 68 57 50 47 46 52 56 58 48 38 33 21 13 4 356 352 351 352 349 346 342 339 337 334 332 331 333 332 332 333 331 329 327 324 321 318 318 320 321 323 326 327 328 327 325 318 292 274 270 266 263 262
178 179 184 186 185 189 191 185 184 183 181 182 180 180 181 178 176 176 174 171 170 170 167 161 157 150 138 129 116 93 78 72 66 60 46 40 41 46 60 64 56 46 37 31 21 12 0 354 355 356 355 347 343 338 334 332 330 328 327 329 330 330 330 328 326 323 320 318 316 316 318 319 319 319 319 323 327 327 326 305 283 280 277 273 267
180 180 183 186 187 189 189 186 187 186 184 184 182 183 183 178 178 178 173 173 172 170 168 165 160 152 144 141 129 102 85 71 59 46 37 42 49 56 66 59 46 43 38 28 15 3 354 354 355 353 350 346 342 337 334 332 330 328 327 329 331 331 331 329 329 328 328 327 326 326 325 323 320 318 317 316 321 327 329 317 298 287 281 278 272
185 181 182 187 188 189 188 188 189 188 187 187 184 186 184 178 180 178 173 173 173 172 171 169 163 158 155 158 150 118 97 79 60 38 35 46 59 69 65 50 41 39 33 20 5 352 347 349 346 345 345 345 343 337 333 331 331 331 331 332 333 333 335 336 338 340 342 343 343 341 339 336 333 329 327 324 326 332 332 322 311 300 294 294 288
184 182 185 188 188 189 189 189 190 190 189 188 187 189 186 182 181 176 176 175 173 176 176 175 170 167 169 177 178 144 116 95 79 45 39 39 56 71 64 54 39 26 11 360 353 345 342 341 340 341 341 341 338 332 328 326 328 331 333 334 334 336 342 349 355 359 1 3 3 0 357 354 351 347 342 336 331 329 326 319 316 314 310 309 304
186 186 188 188 187 189 190 191 192 191 190 188 188 191 188 185 182 178 180 178 176 179 180 181 178 176 183 185 182 152 132 117 102 51 60 59 63 84 83 71 28 5 351 345 342 334 331 330 332 335 334 333 329 325 322 322 326 332 334 333 335 345 359 10 16 21 21 20 19 15 11 8 5 3 359 353 344 336 329 323 322 323 318 315 313
189 190 189 188 189 190 191 192 192 192 190 188 189 190 189 188 185 182 184 183 180 182 183 185 186 188 190 190 184 163 162 197 233 226 142 120 112 125 110 74 4 349 345 343 338 329 325 324 327 329 329 327 325 323 321 322 329 334 335 337 352 14 28 35 36 36 33 29 27 24 20 16 14 11 9 6 360 353 343 333 326 323 322 322 321
189 190 191 191 192 192 192 192 192 193 190 189 190 189 190 190 189 188 189 187 184 185 187 189 195 198 198 195 188 188 215 249 240 213 183 162 146 141 124 54 346 344 340 339 335 330 326 326 329 330 329 328 326 325 325 327 334 339 343 4 39 47 49 50 48 43 39 36 34 33 31 25 21 19 17 16 12 6 357 346 336 327 327 327 323
187 190 194 195 195 194 192 192 192 194 192 191 192 190 192 195 194 194 191 187 187 189 190 195 206 210 205 195 191 203 224 233 219 213 200 176 171 170 162 99 350 333 322 326 330 327 327 330 333 333 332 331 329 327 329 332 337 351 14 61 61 56 59 56 51 44 39 38 38 38 36 33 32 29 27 24 22 19 10 2 352 341 337 337 333
189 192 196 196 197 197 194 193 193 195 195 194 193 192 196 201 201 198 190 186 187 189 195 207 218 213 203 196 198 205 208 210 213 222 214 184 183 172 151 113 313 299 303 318 324 324 331 337 341 339 337 335 331 329 334 338 345 14 60 84 63 56 61 56 49 43 38 38 40 40 40 40 39 36 33 31 29 26 21 17 9 0 353 349 348
193 195 195 196 199 198 195 196 196 198 198 196 196 196 201 207 206 199 190 188 189 194 203 209 208 202 200 202 203 199 192 192 195 205 191 175 169 157 147 178 251 263 306 323 327 334 340 344 347 346 343 339 335 336 342 350 357 36 82 96 68 57 61 55 48 42 38 40 41 43 44 42 41 36 34 33 31 29 27 27 22 17 12 4 359
193 195 195 196 199 197 196 198 198 200 200 200 198 196 203 209 205 200 196 195 198 201 200 195 193 196 201 202 198 190 179 165 158 175 174 161 155 153 154 174 205 283 323 336 350 359 353 350 352 351 350 347 348 347 348 358 6 51 95 106 82 61 58 53 50 44 40 42 43 45 46 43 40 37 34 33 31 30 28 29 27 25 23 16 11
193 194 195 196 195 194 195 196 198 199 200 201 196 192 202 207 202 200 201 200 198 190 183 183 187 194 194 192 190 181 163 152 154 169 169 158 157 164 175 190 226 303 321 360 18 15 4 356 355 357 357 359 6 1 354 359 9 73 108 105 96 68 55 48 49 46 42 44 45 46 47 44 41 39 37 35 34 32 31 31 31 28 24 19 16
193 191 192 194 192 190 192 194 197 198 197 197 193 192 199 200 198 197 193 187 181 174 174 180 184 184 181 181 180 167 156 155 159 165 167 166 166 175 190 200 226 257 341 37 33 19 8 2 359 2 4 1 4 8 5 359 7 49 120 108 95 71 47 44 49 48 43 44 46 46 47 45 42 41 39 38 36 34 34 34 34 31 25 19 17
193 189 189 193 192 189 189 192 195 196 195 195 193 194 195 192 190 186 178 171 170 169 169 174 175 171 170 172 168 160 159 160 161 163 166 170 167 171 180 162 165 129 63 55 45 27 18 16 9 10 9 4 5 10 9 6 9 15 26 93 46 45 65 45 46 48 43 44 47 47 48 45 41 41 39 38 36 35 34 34 33 32 28 23 22
192 189 188 192 193 190 190 193 195 194 195 198 197 197 198 194 185 177 170 165 166 169 167 166 165 161 161 162 159 159 161 160 159 161 165 168 166 166 157 140 128 86 70 61 49 40 35 37 26 16 13 15 21 15 12 18 15 7 347 327 359 14 127 40 35 43 43 42 47 48 47 45 40 38 37 37 36 34 32 31 31 31 29 24 23
192 189 189 191 191 190 191 194 195 193 196 200 199 198 197 192 184 175 170 164 161 166 164 158 156 154 153 155 157 160 162 161 161 166 166 158 157 159 144 131 117 83 68 61 55 50 45 44 31 20 14 21 33 26 21 28 24 9 348 351 6 355 315 360 5 23 41 39 44 50 50 46 38 35 34 35 35 33 31 29 29 32 30 25 23
192 189 187 188 189 189 190 193 195 193 194 196 196 194 186 180 178 173 171 164 157 159 155 150 153 152 150 154 158 160 163 164 164 169 167 153 152 149 139 130 115 83 61 59 63 62 53 40 23 15 16 22 37 40 36 38 35 32 25 348 35 24 17 335 332 346 33 36 38 44 50 49 37 32 31 30 31 31 30 29 29 31 32 28 26
191 189 187 187 189 189 189 192 193 190 191 191 189 185 178 172 168 161 157 152 147 151 148 146 151 152 152 154 156 159 166 166 164 167 163 154 148 140 134 125 106 88 69 69 76 70 56 36 18 11 18 29 41 52 53 55 54 55 61 81 57 49 317 317 317 325 11 24 34 37 45 51 39 32 30 26 26 27 27 29 30 31 31 29 28
191 190 188 189 189 187 187 189 189 187 188 188 186 184 179 175 168 157 150 143 140 147 150 149 152 153 153 153 153 159 166 164 160 158 154 147 141 132 126 121 107 100 92 85 83 69 47 31 19 9 21 32 38 59 65 66 70 70 72 79 78 78 45 335 331 313 341 2 27 31 37 48 42 35 31 25 22 24 25 27 29 31 30 29 27
189 188 188 189 189 186 184 186 186 185 186 186 186 186 183 180 176 169 161 154 149 150 153 153 154 155 154 153 153 155 159 158 152 146 142 135 131 127 120 117 114 112 109 91 76 59 40 31 26 20 30 34 37 55 61 61 71 70 73 83 81 76 67 43 42 306 327 342 3 18 28 38 44 38 32 26 21 22 26 26 28 29 29 28 27
184 185 187 188 188 185 182 183 184 185 185 186 186 188 187 183 178 173 167 165 161 155 154 155 155 156 154 152 152 151 151 151 145 136 131 126 123 125 121 119 122 119 108 84 68 56 44 44 45 45 48 44 42 53 57 53 56 55 60 74 79 81 74 60 54 24 342 331 336 3 14 23 40 40 29 25 21 23 26 27 27 27 28 27 26
179 182 185 187 187 183 181 182 184 185 185 185 186 188 190 186 179 174 167 165 162 157 157 158 158 158 153 152 153 151 150 146 139 133 128 127 125 124 123 125 125 117 98 78 70 63 59 65 67 65 62 59 55 55 59 56 53 50 47 48 54 65 65 50 44 43 38 4 349 350 355 8 29 34 24 20 22 26 27 27 27 26 26 26 24
176 177 181 184 183 181 181 183 184 185 184 185 185 185 186 184 178 175 167 159 157 156 158 159 158 157 154 153 154 152 151 145 139 137 134 131 129 129 131 129 123 112 94 78 74 74 75 79 77 72 69 72 74 69 67 63 56 51 46 43 44 44 41 31 25 26 30 18 355 343 349 354 4 19 19 17 21 27 28 27 25 25 25 24 23
172 173 176 179 179 180 181 181 182 183 183 183 183 182 183 182 178 176 172 163 160 162 163 160 157 158 157 154 155 154 151 145 141 141 137 133 136 137 135 129 121 108 93 84 84 86 88 86 82 81 83 86 88 83 78 72 64 60 54 54 56 55 53 44 25 20 23 15 352 340 350 351 350 4 10 15 21 25 28 28 23 23 24 22 23